Weather History for Missoula, MT

Change the Weather History Date:

Tuesday, January 1, 2013

  Actual Average Record
Temperature  
Mean Temperature 17 °F 24 °F  
Max Temperature 26 °F 31 °F 60 °F (1939)
Min Temperature 7 °F 16 °F -28 °F (1979)
Degree Days  
Heating Degree Days 48 41  
Month to date heating degree days 48 41  
Since 1 July heating degree days 2830 3213  
Cooling Degree Days 0 0  
Month to date cooling degree days 0 0  
Year to date cooling degree days 0 0  
Moisture  
Dew Point 14 °F    
Average Humidity 77    
Maximum Humidity 92    
Minimum Humidity 62    
Precipitation  
Precipitation T in 0.03 in 0.28 in (1997)
Month to date precipitation T 0.03  
Year to date precipitation T 0.03  
Snow  
Snow T in - - ()
Month to date snowfall T  
Year to date snowfall T  
Since 1 July snowfall 21.1  
Snow Depth 4.00 in    
Sea Level Pressure  
Sea Level Pressure 30.53 in    
Wind  
Wind Speed 3 mph (North)    
Max Wind Speed 7 mph    
Max Gust Speed 8 mph    
Visibility 10 miles    
Events      
T = Trace of Precipitation, MM = Missing Value Source: NWS Daily Summary

Daily Weather History Graph

Daily Weather History Graph

Search for Another Location

Airport:

Trip Planner

Search our weather history database for the weather conditions in past years. The results will help you decide how hot, cold, wet, or windy it might be!

Date:

Astronomy

Jan. 01, 2013 Rise Set
Actual Time 8:21 AM MST 4:58 PM MST
Civil Twilight 7:46 AM MST 5:33 PM MST
Nautical Twilight 7:08 AM MST 6:12 PM MST
Astronomical Twilight 6:31 AM MST 6:49 PM MST
Moon 9:52 PM MST (1/1) 10:18 AM MST (1/1)
Length of Visible Light 9h 47m
Length of Day
8h 36m
Waning Gibbous, 83% of the Moon is Illuminated
Jan 1
Waning Gibbous
Jan 4
Last Quarter
Jan 11
New
Jan 18
First Quarter
Jan 26
Full

Hourly Weather History & Observations

Time (MST) Temp. Windchill Dew Point Humidity Pressure Visibility Wind Dir Wind Speed Gust Speed Precip Events Conditions
12:53 AM 24.1 °F 19.7 °F 17.1 °F 75% 30.42 in 10.0 mi ESE 3.5 mph - N/A   Overcast
1:53 AM 23.0 °F 17.0 °F 16.0 °F 74% 30.43 in 10.0 mi East 4.6 mph - N/A   Overcast
2:27 AM 21.2 °F 16.4 °F 15.8 °F 80% 30.32 in 10.0 mi NNE 3.5 mph - N/A   Overcast
2:53 AM 21.9 °F - 15.1 °F 75% 30.46 in 10.0 mi Calm Calm - N/A   Mostly Cloudy
3:53 AM 17.1 °F - 12.0 °F 81% 30.48 in 10.0 mi Calm Calm - N/A   Clear
4:53 AM 15.1 °F 9.4 °F 12.0 °F 88% 30.47 in 10.0 mi NNW 3.5 mph - N/A   Clear
5:53 AM 15.1 °F - 10.9 °F 84% 30.48 in 10.0 mi Calm Calm - N/A   Clear
6:53 AM 12.0 °F - 9.0 °F 88% 30.51 in 10.0 mi Calm Calm - N/A   Partly Cloudy
7:53 AM 9.0 °F -0.9 °F 6.1 °F 88% 30.55 in 10.0 mi WSW 5.8 mph - N/A   Partly Cloudy
8:46 AM 10.4 °F 0.8 °F 6.8 °F 85% 30.38 in 10.0 mi SSE 5.8 mph - N/A   Scattered Clouds
8:53 AM 10.0 °F 1.8 °F 8.1 °F 92% 30.54 in 10.0 mi SSE 4.6 mph - N/A   Scattered Clouds
9:53 AM 16.0 °F - 14.0 °F 92% 30.56 in 10.0 mi Calm Calm - N/A   Overcast
10:53 AM 19.9 °F 14.9 °F 15.1 °F 81% 30.58 in 10.0 mi NE 3.5 mph - N/A   Overcast
11:53 AM 19.0 °F - 15.1 °F 85% 30.59 in 10.0 mi Calm Calm - N/A   Overcast
12:53 PM 21.9 °F - 16.0 °F 78% 30.56 in 10.0 mi Calm Calm - N/A   Overcast
1:53 PM 21.0 °F - 15.1 °F 78% 30.56 in 10.0 mi Calm Calm - N/A   Overcast
2:39 PM 21.2 °F - 15.8 °F 80% 30.42 in 9.0 mi Calm Calm - 0.00 in   Overcast
2:53 PM 23.0 °F - 16.0 °F 74% 30.56 in 10.0 mi Calm Calm - 0.00 in   Overcast
3:53 PM 26.1 °F 17.6 °F 16.0 °F 66% 30.56 in 10.0 mi NNW 8.1 mph - N/A   Overcast
4:53 PM 26.1 °F 19.4 °F 16.0 °F 66% 30.59 in 10.0 mi NNW 5.8 mph - N/A   Overcast
5:53 PM 26.1 °F 19.4 °F 17.1 °F 69% 30.59 in 10.0 mi North 5.8 mph - N/A   Overcast
7:53 PM 24.1 °F 19.7 °F 17.1 °F 75% 30.61 in 10.0 mi SW 3.5 mph - N/A   Overcast
8:53 PM 24.1 °F - 17.1 °F 75% 30.62 in 10.0 mi Calm Calm - N/A   Overcast
9:09 PM 24.8 °F - 17.6 °F 74% 30.46 in 10.0 mi Calm Calm - N/A   Overcast
9:53 PM 24.1 °F - 17.1 °F 75% 30.62 in 10.0 mi Calm Calm - N/A   Overcast
10:53 PM 24.1 °F 17.0 °F 14.0 °F 65% 30.61 in 10.0 mi NW 5.8 mph - N/A   Overcast
11:53 PM 24.1 °F 19.7 °F 16.0 °F 71% 30.61 in 10.0 mi NW 3.5 mph - N/A   Overcast